Temperature
9 7 7 7 8 7 7 8 8 8 6 6 4 3 2 -0 -2 -3 -5 -6 -7 -8 -9 -10 -10 -11 -11 -11 -11 -12 -12 -12 -13 -13 -13 -14 -14 -14 -14 -13 -13 -13 -13 -12
9 6 6 6 7 6 6 6 6 6 6 5 3 2 2 -1 -3 -5 -6 -7 -8 -9 -9 -10 -10 -10 -10 -11 -11 -12 -12 -12 -13 -13 -13 -14 -14 -14 -14 -14 -13 -13 -13 -13
11 7 7 9 8 6 6 6 6 5 5 4 3 2 0 -3 -5 -6 -7 -7 -8 -9 -10 -10 -10 -10 -10 -10 -11 -11 -12 -12 -12 -13 -13 -14 -14 -14 -14 -14 -14 -13 -13 -13
8 9 9 9 5 6 6 5 5 4 4 3 2 -0 -3 -5 -6 -7 -8 -8 -9 -9 -9 -9 -9 -9 -10 -10 -10 -11 -11 -12 -12 -13 -14 -14 -14 -14 -14 -14 -14 -14 -14 -13
7 10 11 7 5 4 5 5 4 4 3 2 0 -0 -2 -5 -7 -8 -8 -8 -8 -8 -9 -9 -9 -9 -10 -10 -10 -11 -11 -12 -13 -14 -14 -14 -14 -14 -14 -15 -14 -14 -14 -13
6 8 10 9 5 3 4 5 3 2 2 1 -1 1 -1 -6 -7 -7 -7 -7 -7 -8 -9 -9 -9 -10 -10 -10 -10 -11 -12 -12 -13 -14 -14 -15 -15 -15 -15 -15 -14 -14 -14 -13
6 7 10 6 3 3 5 6 2 2 1 -1 -2 -3 -5 -6 -7 -7 -7 -7 -7 -8 -8 -9 -9 -9 -9 -10 -11 -11 -11 -12 -13 -14 -14 -15 -15 -15 -15 -15 -14 -14 -14 -13
6 6 8 3 3 5 5 2 1 0 -1 -2 -3 -5 -6 -6 -6 -6 -6 -7 -7 -8 -8 -9 -9 -9 -10 -10 -11 -11 -11 -12 -13 -13 -14 -14 -14 -15 -15 -14 -14 -14 -14 -13
8 9 4 3 3 3 2 1 0 -0 -1 -3 -4 -5 -6 -6 -6 -6 -7 -7 -7 -8 -8 -8 -9 -10 -10 -10 -10 -11 -11 -12 -13 -14 -14 -14 -14 -14 -14 -14 -14 -14 -14 -13
5 5 3 2 1 2 2 1 0 -1 -2 -3 -4 -5 -5 -6 -6 -6 -7 -7 -7 -8 -8 -8 -9 -9 -10 -10 -10 -11 -12 -13 -14 -14 -14 -14 -14 -14 -14 -14 -14 -13 -13 -13
5 4 1 1 1 1 1 1 -0 -1 -3 -3 -4 -5 -5 -6 -6 -6 -7 -7 -7 -8 -8 -8 -9 -9 -9 -10 -10 -11 -12 -13 -14 -14 -13 -14 -14 -14 -14 -14 -14 -14 -14 -14
7 5 3 2 1 2 1 1 -1 -2 -3 -4 -4 -5 -5 -6 -6 -6 -6 -7 -7 -7 -8 -8 -9 -9 -9 -10 -10 -11 -12 -13 -13 -13 -13 -14 -14 -14 -14 -14 -14 -14 -14 -14
4 4 3 3 2 1 1 -0 -1 -2 -3 -4 -5 -5 -5 -6 -6 -6 -6 -7 -7 -8 -8 -8 -8 -9 -9 -9 -10 -11 -12 -13 -13 -13 -14 -14 -14 -14 -14 -14 -15 -15 -15 -15
4 4 2 2 1 1 0 -1 -2 -3 -4 -4 -5 -5 -5 -6 -6 -6 -6 -7 -7 -7 -8 -8 -8 -8 -9 -9 -10 -11 -12 -13 -13 -14 -14 -14 -14 -15 -15 -15 -15 -15 -15 -15
3 3 3 2 1 0 -0 -1 -2 -3 -4 -4 -5 -5 -5 -6 -6 -6 -6 -6 -7 -7 -7 -8 -8 -8 -9 -9 -10 -11 -12 -12 -13 -13 -14 -14 -14 -14 -14 -15 -15 -15 -15 -15
2 2 2 2 1 0 -1 -2 -2 -3 -4 -4 -5 -5 -5 -6 -6 -6 -6 -6 -7 -7 -7 -7 -8 -8 -9 -9 -10 -10 -11 -12 -13 -13 -13 -14 -14 -14 -15 -15 -15 -15 -15 -15
2 1 1 1 1 0 -1 -2 -2 -3 -4 -4 -5 -5 -5 -6 -6 -6 -6 -6 -7 -7 -7 -7 -8 -8 -9 -9 -10 -10 -10 -11 -12 -13 -13 -14 -14 -14 -15 -15 -15 -15 -15 -15
4 4 3 3 2 1 -1 -2 -3 -3 -4 -4 -5 -5 -5 -5 -5 -5 -5 -6 -6 -6 -7 -7 -7 -8 -8 -9 -9 -9 -10 -10 -11 -12 -13 -13 -14 -14 -14 -15 -15 -15 -15 -15
3 3 2 1 1 0 -1 -2 -3 -4 -4 -4 -5 -5 -5 -5 -5 -5 -5 -5 -5 -6 -6 -6 -7 -8 -8 -9 -9 -9 -9 -10 -11 -12 -12 -13 -13 -13 -14 -14 -15 -15 -15 -15
2 2 1 1 0 -0 -1 -2 -3 -4 -4 -4 -5 -5 -5 -5 -5 -6 -6 -5 -6 -6 -6 -6 -7 -7 -8 -9 -9 -9 -9 -9 -10 -11 -11 -12 -12 -13 -13 -13 -14 -14 -14 -15
2 1 1 1 0 -1 -2 -2 -3 -4 -4 -4 -5 -5 -5 -5 -5 -5 -5 -5 -5 -5 -6 -6 -6 -7 -8 -8 -9 -9 -9 -9 -9 -10 -11 -11 -11 -12 -12 -12 -13 -13 -13 -14
1 1 1 0 -0 -1 -2 -3 -3 -4 -4 -4 -5 -5 -5 -5 -5 -5 -5 -5 -5 -5 -6 -6 -6 -7 -7 -8 -8 -8 -8 -9 -9 -10 -10 -10 -11 -11 -11 -11 -12 -12 -12 -13
1 1 1 0 -1 -1 -2 -3 -4 -4 -4 -5 -5 -5 -5 -5 -5 -5 -5 -5 -5 -5 -6 -6 -6 -6 -7 -7 -8 -8 -8 -8 -9 -9 -10 -10 -10 -10 -10 -10 -11 -11 -11 -12
1 1 0 -0 -1 -2 -2 -3 -4 -4 -5 -5 -5 -5 -5 -5 -5 -5 -5 -5 -5 -5 -5 -6 -6 -6 -6 -7 -7 -7 -8 -8 -8 -9 -9 -9 -10 -10 -10 -10 -10 -10 -10 -10
1 1 0 -0 -1 -2 -2 -3 -4 -4 -5 -5 -5 -5 -5 -5 -5 -5 -5 -5 -5 -5 -6 -6 -6 -6 -6 -6 -7 -7 -7 -8 -8 -8 -9 -9 -9 -10 -10 -10 -10 -10 -10 -10
1 0 0 -0 -1 -2 -3 -3 -3 -4 -4 -5 -5 -5 -5 -5 -5 -5 -5 -5 -5 -6 -6 -6 -6 -6 -6 -6 -6 -7 -7 -7 -7 -8 -8 -8 -8 -9 -10 -10 -10 -10 -10 -10
0 0 -0 -1 -2 -2 -3 -3 -3 -4 -4 -5 -5 -5 -5 -6 -5 -5 -5 -6 -6 -6 -6 -6 -6 -6 -6 -6 -6 -7 -7 -7 -7 -7 -8 -8 -8 -8 -9 -10 -11 -11 -11 -10
Wind_Speed
6 3 4 7 8 8 10 9 8 8 7 10 6 10 12 12 10 12 14 15 14 15 15 15 15 15 16 16 16 16 17 17 17 17 18 18 18 18 19 19 19 19 19 19
4 3 5 8 10 10 10 9 10 10 10 2 6 9 13 11 9 12 14 14 15 15 15 16 16 16 16 16 16 16 16 16 17 17 18 18 18 18 18 18 18 18 18 19
4 3 7 8 7 10 6 7 6 6 5 4 9 12 12 7 7 12 14 14 14 15 15 15 16 15 16 16 16 16 16 16 16 17 18 18 18 18 18 18 18 18 18 18
5 5 5 2 2 5 6 6 6 7 5 5 8 9 4 2 8 12 12 13 13 13 14 15 15 14 15 15 15 15 16 16 16 17 18 18 18 18 17 16 16 16 17 18
2 5 8 2 5 5 5 5 5 4 3 5 7 8 2 1 6 9 10 11 12 12 14 15 14 14 15 15 15 15 16 17 17 18 18 18 18 18 17 16 16 16 16 17
2 4 6 1 6 6 3 4 6 4 3 5 6 8 5 3 6 8 9 10 11 13 14 13 14 14 15 16 16 16 17 18 19 18 18 18 18 18 16 15 15 15 15 16
6 6 7 5 8 7 3 1 8 3 1 2 2 3 4 4 6 7 9 11 12 13 12 12 13 14 15 16 16 18 19 19 19 18 18 17 16 16 16 14 14 14 15 14
5 6 6 11 10 7 1 6 6 4 2 2 0 1 2 5 7 8 10 11 12 12 13 13 12 13 16 17 18 18 19 19 18 18 16 15 16 15 15 14 13 13 13 13
9 5 3 10 6 4 7 6 5 5 4 4 2 1 2 4 6 8 10 11 11 12 14 13 13 14 16 17 18 18 18 18 18 18 16 16 15 15 13 12 11 11 10 10
8 8 6 9 6 7 6 6 7 7 7 5 4 2 2 3 6 8 9 10 11 12 13 14 15 15 15 17 17 18 18 18 17 17 16 16 14 12 12 12 12 12 9 8
8 4 5 9 10 10 8 10 10 9 7 6 5 3 1 3 5 7 8 9 10 11 12 14 15 16 16 16 17 18 18 17 17 16 16 15 14 12 13 11 13 12 9 8
6 7 8 8 14 13 12 11 11 10 8 6 4 3 1 2 4 6 8 9 10 11 13 14 15 16 16 17 17 18 17 17 15 14 14 14 13 13 15 15 17 16 14 12
3 6 6 11 13 11 10 11 10 9 8 7 5 3 0 2 4 6 7 9 10 12 13 13 14 15 16 17 17 17 17 16 14 14 14 14 13 13 13 13 14 13 13 13
8 9 8 8 9 10 11 12 11 9 8 7 5 3 0 3 4 6 7 9 10 11 11 12 13 15 17 17 17 17 16 16 16 14 14 13 13 12 11 11 10 9 9 11
10 4 9 11 13 13 13 11 11 9 8 6 4 2 1 3 5 6 8 9 10 10 10 12 13 15 16 17 17 16 14 13 14 13 13 13 12 12 11 11 9 8 7 7
11 10 13 15 14 13 12 12 10 10 8 7 5 3 2 4 5 6 7 8 8 9 10 11 13 15 16 16 16 13 12 17 17 13 13 13 12 12 11 10 9 8 7 6
16 12 12 13 13 13 12 10 10 10 9 7 5 3 2 3 4 5 7 7 7 8 8 10 13 15 16 15 14 11 11 13 18 14 12 12 12 11 11 10 9 8 7 8
17 15 16 16 16 15 12 10 10 10 8 7 6 4 2 2 4 6 8 8 7 6 8 11 13 15 14 14 12 10 10 10 12 12 12 12 12 10 10 10 10 9 7 7
13 13 13 13 14 14 13 12 11 10 8 8 6 4 2 2 4 6 7 7 7 8 10 13 18 14 13 15 15 8 9 11 11 11 11 13 12 10 10 9 9 9 8 7
11 12 12 12 12 11 12 12 11 10 9 8 6 4 3 2 4 5 5 4 3 5 10 12 12 11 12 13 14 8 9 11 11 11 11 11 11 10 10 9 9 8 8 7
14 13 13 13 12 12 13 13 13 11 9 8 6 5 3 2 3 4 4 3 4 8 10 11 10 10 12 13 11 8 9 10 11 11 11 11 10 10 9 9 9 8 8 7
14 14 14 13 13 12 11 11 11 11 10 8 6 4 3 3 3 3 3 3 6 11 9 6 8 13 16 13 8 8 9 10 11 11 11 11 11 10 10 10 9 8 8 8
13 13 14 14 13 13 11 10 10 10 10 9 8 6 4 2 2 2 3 4 6 10 7 6 12 16 16 10 7 8 9 10 11 12 12 12 12 11 11 11 10 9 9 9
13 13 12 12 12 13 12 11 9 8 7 7 6 5 4 3 2 2 3 7 8 9 5 8 13 14 12 8 7 8 9 10 11 12 13 13 13 13 12 12 11 10 10 11
13 13 13 14 13 11 11 11 9 8 7 6 6 6 5 4 3 3 4 5 7 7 5 7 11 12 9 7 7 8 8 9 11 12 12 13 14 14 14 14 14 13 12 11
12 11 11 11 10 10 10 10 9 8 8 7 6 6 5 4 4 3 3 3 4 4 4 5 6 8 7 8 8 8 8 10 10 10 12 13 15 15 15 17 19 16 14 13
11 10 9 8 8 9 10 10 10 10 9 9 7 6 5 4 3 3 2 2 2 2 3 4 5 5 6 7 8 9 9 10 11 12 13 14 14 14 16 19 18 18 19 19
Wind_Direction
272 274 264 264 251 231 229 246 265 291 294 320 345 342 342 346 347 346 346 345 344 342 340 338 337 335 335 334 335 334 333 334 333 332 331 332 333 334 335 336 335 335 335 335
271 234 276 269 251 239 240 244 254 276 294 19 337 333 338 347 348 344 343 343 342 339 336 335 334 332 330 328 328 327 327 326 327 329 329 329 330 333 335 335 334 335 336 336
280 307 299 273 236 209 212 216 235 270 307 329 324 336 338 346 346 341 341 341 338 334 331 330 329 328 323 322 322 321 321 321 322 324 325 326 327 329 333 333 332 332 333 335
296 310 281 90 81 190 216 236 231 256 283 310 324 329 343 13 344 340 340 335 331 328 326 324 324 321 317 316 315 316 317 317 319 321 321 321 324 326 329 330 329 329 330 333
270 283 274 170 178 178 210 254 205 215 267 318 329 305 199 65 345 337 335 330 325 324 322 321 321 319 317 314 315 315 315 317 319 320 319 320 321 322 326 328 325 327 329 333
214 265 273 105 147 149 181 249 171 191 286 320 327 327 4 26 340 339 335 331 327 324 322 322 323 322 316 317 320 321 321 320 320 321 321 320 319 321 324 323 324 326 328 333
221 246 274 132 145 157 222 22 152 186 250 304 310 316 346 346 345 343 336 333 330 325 323 323 324 321 318 321 325 324 322 321 322 324 323 320 320 322 321 322 323 326 328 333
198 229 262 147 157 194 159 124 154 158 145 152 209 345 352 352 346 341 336 334 332 327 323 324 323 322 322 326 327 326 324 325 327 327 325 322 324 324 324 324 323 326 329 335
207 231 89 169 174 147 137 150 152 148 139 141 149 99 11 349 340 337 335 332 330 325 320 325 329 330 328 328 329 327 327 329 328 328 327 328 329 329 329 327 324 321 321 333
251 252 204 185 160 148 145 137 132 131 135 138 136 111 23 344 338 337 334 332 328 325 326 328 332 335 332 330 330 329 329 330 330 330 330 332 333 333 332 329 327 328 335 341
246 232 169 185 176 155 133 128 128 125 128 132 132 120 50 336 335 332 327 327 326 324 322 326 333 335 335 335 335 333 332 333 333 334 335 338 340 339 339 339 340 349 353 350
223 187 173 177 168 153 145 146 143 138 135 126 126 129 84 328 324 320 319 321 322 323 327 331 333 335 338 340 338 336 336 338 338 339 343 345 344 344 347 349 351 358 0 0
123 127 119 130 141 146 143 143 145 144 144 142 133 129 44 311 310 312 315 323 326 325 327 330 333 337 341 341 338 339 340 340 340 345 347 346 346 344 343 348 356 4 6 4
140 128 129 143 145 140 134 133 129 127 129 136 139 139 287 307 314 324 329 326 322 322 327 333 336 340 342 341 340 341 343 344 347 346 347 346 346 345 345 346 350 0 7 8
165 146 140 133 128 129 132 137 139 140 144 145 149 160 258 305 317 321 322 324 324 328 336 338 339 340 342 342 341 343 348 350 350 349 349 349 350 351 351 352 354 359 4 12
146 123 131 138 143 147 152 158 160 160 161 162 173 193 249 288 301 311 326 335 331 328 332 335 338 338 339 342 341 344 348 352 356 353 354 355 358 358 359 360 3 6 7 5
148 151 154 157 161 166 171 172 167 162 162 168 177 191 251 295 315 335 338 335 320 310 322 337 337 335 340 344 342 344 345 349 355 357 359 359 1 2 1 3 6 7 8 2
175 169 170 168 168 169 170 165 158 157 161 165 164 185 222 316 336 329 328 328 327 336 353 348 336 340 342 343 345 343 344 348 353 357 358 360 1 360 0 2 4 5 2 2
165 159 158 160 162 162 161 159 156 154 152 156 169 181 207 290 314 318 323 330 339 347 343 335 339 343 340 345 348 341 343 347 351 355 356 357 358 358 357 357 357 357 355 353
146 144 141 142 146 149 151 150 150 153 157 160 167 181 208 273 311 317 318 309 321 314 308 328 340 338 338 344 348 342 343 347 348 349 351 353 352 352 351 349 347 345 344 341
146 143 142 144 146 148 151 153 156 158 160 167 176 185 210 274 300 308 310 337 345 327 330 345 341 336 344 347 344 343 345 346 347 346 345 345 344 343 341 338 335 331 328 324
150 150 150 150 148 148 151 154 156 156 160 170 180 190 220 261 296 301 264 289 321 329 341 343 338 346 354 350 343 344 345 346 346 345 344 341 338 334 331 327 321 317 313 308
155 155 155 156 153 148 148 155 160 163 170 177 184 194 208 247 288 306 323 326 325 331 346 342 345 353 356 351 344 344 345 346 345 345 343 341 338 334 327 321 314 306 300 297
154 153 150 143 140 147 159 168 167 169 173 180 191 200 213 233 246 242 282 310 325 334 344 345 354 358 358 352 345 345 346 345 344 344 343 342 341 340 338 331 322 312 302 293
151 147 146 151 160 169 169 162 163 168 177 192 204 209 216 225 244 281 300 309 323 336 341 348 359 2 1 350 347 344 343 344 345 344 343 342 342 343 344 344 341 332 322 310
155 161 167 173 170 164 163 167 175 180 184 191 200 204 205 210 232 259 280 300 316 335 345 348 352 357 355 349 345 343 341 341 343 343 342 341 340 342 344 347 346 346 341 335
150 152 154 161 167 169 170 175 180 184 187 190 191 191 192 195 207 226 251 277 309 332 346 353 356 355 351 347 343 342 341 342 343 343 343 341 340 340 343 345 347 347 348 347
Height
1604 1609 1609 1606 1605 1607 1607 1601 1599 1593 1601 1602 1606 1607 1606 1604 1602 1599 1596 1591 1587 1581 1575 1569 1562 1556 1549 1542 1535 1529 1522 1516 1509 1503 1496 1490 1484 1477 1471 1464 1458 1452 1446 1439
1602 1609 1609 1606 1602 1604 1605 1605 1603 1602 1601 1605 1607 1606 1604 1603 1601 1598 1594 1590 1585 1579 1573 1567 1560 1553 1546 1540 1533 1527 1521 1514 1508 1501 1494 1488 1482 1476 1469 1463 1457 1451 1445 1439
1595 1605 1604 1590 1592 1598 1600 1601 1602 1600 1602 1605 1604 1604 1603 1601 1600 1597 1593 1588 1583 1577 1571 1565 1558 1552 1545 1538 1532 1526 1519 1513 1506 1499 1492 1486 1480 1475 1468 1462 1455 1450 1444 1438
1603 1598 1597 1588 1598 1597 1599 1600 1602 1602 1603 1604 1604 1603 1601 1600 1598 1595 1591 1586 1580 1575 1569 1563 1557 1550 1544 1537 1530 1524 1517 1510 1503 1496 1490 1484 1478 1473 1467 1461 1455 1449 1444 1438
1607 1592 1580 1592 1596 1598 1599 1597 1600 1601 1602 1603 1602 1600 1599 1598 1596 1593 1589 1584 1579 1573 1567 1561 1555 1549 1542 1535 1528 1521 1514 1507 1501 1494 1488 1482 1476 1471 1465 1459 1454 1449 1444 1438
1610 1599 1582 1583 1595 1596 1599 1594 1599 1600 1601 1601 1601 1597 1598 1597 1594 1591 1587 1582 1578 1572 1567 1560 1554 1547 1540 1534 1527 1520 1512 1505 1499 1492 1486 1479 1474 1469 1463 1458 1453 1448 1443 1438
1604 1598 1577 1589 1593 1597 1594 1590 1597 1598 1599 1599 1599 1600 1599 1595 1592 1589 1586 1581 1577 1572 1566 1559 1552 1546 1539 1532 1525 1519 1511 1503 1497 1490 1483 1477 1472 1467 1461 1457 1452 1448 1443 1439
1600 1597 1584 1588 1592 1592 1590 1593 1595 1596 1597 1597 1597 1596 1595 1593 1591 1588 1584 1580 1575 1570 1565 1559 1551 1545 1538 1532 1525 1517 1509 1502 1495 1488 1482 1476 1471 1465 1460 1456 1451 1447 1443 1439
1585 1579 1581 1584 1585 1588 1590 1592 1594 1594 1595 1595 1595 1594 1593 1591 1589 1586 1583 1579 1574 1569 1564 1558 1551 1544 1537 1531 1523 1515 1507 1500 1493 1487 1482 1476 1470 1465 1460 1455 1451 1447 1443 1440
1582 1576 1579 1581 1583 1586 1588 1590 1591 1592 1593 1592 1593 1592 1591 1590 1588 1585 1582 1578 1573 1568 1562 1556 1551 1545 1538 1530 1522 1514 1506 1499 1492 1486 1481 1475 1470 1465 1460 1455 1450 1446 1442 1440
1575 1574 1577 1579 1581 1583 1586 1588 1590 1590 1591 1591 1591 1590 1590 1589 1587 1584 1581 1577 1573 1567 1561 1556 1550 1545 1537 1530 1521 1513 1505 1499 1492 1487 1481 1475 1469 1465 1460 1455 1451 1447 1444 1442
1564 1565 1569 1572 1576 1581 1584 1586 1588 1588 1588 1589 1589 1589 1588 1587 1586 1583 1580 1577 1573 1567 1562 1556 1551 1544 1538 1530 1522 1513 1506 1499 1493 1487 1481 1475 1469 1464 1460 1456 1451 1447 1445 1443
1561 1563 1566 1569 1574 1579 1582 1584 1585 1586 1587 1587 1588 1588 1587 1586 1585 1583 1580 1576 1572 1567 1562 1556 1551 1545 1538 1530 1522 1515 1508 1501 1495 1489 1482 1475 1470 1464 1459 1456 1452 1448 1445 1443
1559 1562 1565 1568 1573 1577 1580 1582 1583 1584 1585 1586 1586 1586 1586 1586 1584 1582 1579 1576 1572 1567 1562 1557 1552 1545 1539 1531 1524 1517 1510 1503 1497 1490 1484 1477 1472 1466 1461 1457 1453 1450 1447 1445
1558 1561 1563 1567 1571 1575 1577 1579 1581 1582 1583 1584 1585 1585 1585 1585 1584 1582 1579 1576 1572 1568 1563 1557 1552 1546 1539 1532 1525 1518 1512 1505 1499 1492 1486 1480 1474 1468 1464 1459 1455 1452 1449 1447
1554 1558 1562 1565 1569 1572 1574 1576 1578 1580 1581 1582 1583 1584 1584 1584 1583 1581 1579 1575 1571 1567 1562 1557 1552 1547 1540 1533 1527 1521 1514 1508 1501 1495 1488 1482 1476 1471 1466 1462 1458 1455 1452 1450
1549 1553 1558 1562 1566 1569 1572 1574 1576 1578 1579 1581 1582 1583 1584 1583 1582 1581 1578 1575 1571 1567 1562 1558 1553 1547 1541 1536 1529 1523 1517 1510 1503 1497 1491 1485 1479 1474 1469 1465 1461 1458 1455 1452
1546 1551 1555 1559 1562 1566 1568 1571 1573 1575 1577 1579 1581 1582 1583 1583 1582 1580 1578 1575 1572 1568 1564 1559 1554 1548 1543 1537 1531 1526 1520 1513 1506 1500 1494 1489 1483 1477 1472 1468 1464 1461 1457 1454
1544 1550 1554 1558 1561 1563 1566 1568 1571 1573 1575 1577 1579 1580 1581 1582 1581 1579 1577 1575 1571 1568 1564 1559 1554 1549 1544 1538 1533 1528 1522 1516 1510 1504 1498 1492 1486 1481 1476 1471 1467 1463 1459 1456
1542 1548 1552 1555 1558 1561 1563 1566 1568 1571 1573 1575 1577 1579 1580 1580 1580 1578 1576 1573 1570 1566 1562 1558 1554 1550 1544 1539 1535 1530 1525 1519 1512 1506 1500 1495 1489 1484 1478 1473 1469 1464 1461 1457
1540 1545 1549 1552 1555 1558 1561 1564 1566 1569 1571 1573 1576 1577 1578 1579 1578 1577 1575 1573 1570 1566 1563 1559 1555 1550 1545 1541 1537 1532 1527 1521 1515 1509 1503 1497 1492 1486 1481 1475 1470 1466 1461 1457
1537 1542 1546 1550 1553 1555 1558 1561 1564 1566 1569 1571 1573 1575 1576 1577 1577 1576 1574 1572 1570 1566 1562 1559 1555 1551 1547 1542 1538 1533 1528 1523 1517 1511 1505 1500 1494 1488 1482 1477 1471 1466 1461 1457
1535 1540 1544 1547 1550 1553 1556 1558 1561 1564 1566 1569 1571 1573 1575 1575 1575 1575 1574 1571 1568 1565 1562 1559 1556 1552 1548 1544 1539 1534 1529 1524 1518 1513 1507 1501 1496 1490 1484 1478 1472 1466 1461 1456
1532 1537 1541 1544 1547 1550 1552 1555 1558 1561 1564 1566 1568 1570 1572 1573 1573 1573 1571 1570 1568 1565 1562 1559 1556 1553 1549 1545 1540 1535 1530 1525 1519 1514 1508 1503 1497 1492 1486 1480 1474 1467 1461 1455
1529 1533 1537 1540 1543 1546 1550 1552 1555 1557 1560 1563 1565 1567 1569 1570 1571 1571 1570 1569 1567 1565 1563 1560 1557 1554 1550 1546 1541 1536 1531 1526 1521 1515 1510 1504 1498 1492 1487 1481 1475 1469 1462 1456
1525 1530 1534 1537 1540 1543 1545 1548 1550 1553 1556 1559 1561 1564 1566 1567 1568 1569 1568 1567 1566 1564 1562 1560 1558 1555 1551 1547 1543 1538 1533 1528 1523 1517 1511 1506 1499 1493 1488 1482 1476 1470 1464 1457
1522 1526 1529 1532 1535 1538 1541 1544 1547 1549 1552 1555 1558 1560 1562 1564 1565 1566 1566 1565 1564 1563 1562 1560 1557 1555 1552 1548 1544 1540 1535 1530 1525 1519 1513 1507 1501 1495 1489 1483 1477 1471 1465 1458